Hourly Weather Roundup
Issued by NWS Central Illinois

Home | Current Version | Previous Version | Text Only | Print | Product List | Glossary On
Versions: 1 2 3 4 5 6 7 8 9 10 11 12 13 14 15 16 17 18 19 20 21 22 23 24 25 26 27 28 29 30 31 32 33 34 35 36 37 38 39 40 41 42 43 44 45 46 47 48 49 50
965
NZUS43 KILX 311410
HWRILX

AREA WEATHER ROUNDUP
NATIONAL WEATHER SERVICE, LINCOLN IL
900 AM CDT WED AUG 31 2016


CITY           SKY/WX    TMP DP  RH WIND       PRES   REMARKS
BLOOMINGTON    NOT AVBL
CHAMPAIGN      PTSUNNY   75  68  78 N3        30.05F
DANVILLE       MOSUNNY   74  72  92 N5        30.01F FOG
DECATUR        MOSUNNY   77  69  76 N7        30.05F
EFFINGHAM      CLOUDY    74  74 100 W3        30.06S FOG
FLORA          FOG       74  73  98 W3        30.05S VSB 1
GALESBURG      CLOUDY    70  66  89 N10       30.09S
JACKSONVILLE   PTSUNNY   73  72  96 CALM      30.06S FOG
LACON          PTSUNNY   72  68  88 N5        30.07R
LAWRENCEVILLE  SUNNY     78  73  84 CALM      30.04S HX  81
LITCHFIELD     MOSUNNY   73  71  92 NW5       30.06S
$$


CITY           SKY/WX    TMP DP  RH WIND       PRES   REMARKS
LINCOLN        MOSUNNY   75  73  93 N5        30.05F
MACOMB         CLOUDY    71  69  92 N8        30.10S
MATTOON        FOG       71  70  96 N5        30.04S VSB 1/4
MT CARMEL AP   SUNNY     75  72  88 CALM      30.04S
OLNEY-NOBLE AP CLOUDY    73  73 100 CALM      30.05S FOG
PARIS          CLOUDY    72  71  98 CALM      30.05S FOG
PEORIA         PTSUNNY   71  71 100 N5        30.07S
PONTIAC        PTSUNNY   73  72  96 N5        30.07S
RANTOUL        MOSUNNY   76  71  83 CALM      30.05S
ROBINSON       SUNNY     75  72  91 N5        30.05R
SPRINGFIELD    PTSUNNY   75  72  90 CALM      30.06S
TAYLORVILLE    PTSUNNY   73  73 100 CALM      30.05S FOG
$$

...REGIONAL REPORTS...


CITY           SKY/WX    TMP DP  RH WIND       PRES   REMARKS
CHICAGO O`HARE PTSUNNY   71  62  73 N10       30.06F
KANKAKEE       MOSUNNY   74  70  86 N5        30.05F
MOLINE         CLOUDY    71  64  78 NE8       30.10S
MOUNT STERLING CLOUDY    73  70  93 N7        30.08S
MOUNT VERNON   CLOUDY    75  70  83 CALM      30.06S
PITTSFIELD     CLOUDY    74  73  94 CALM      30.08S
QUINCY         CLOUDY    73  71  93 N9        30.08S
ROCKFORD       CLOUDY    71  60  68 NE13      30.11S
$$


CITY           SKY/WX    TMP DP  RH WIND       PRES   REMARKS
BURLINGTON     CLOUDY    71  68  90 N10       30.10R
CEDAR RAPIDS   PTSUNNY   67  62  84 N7        30.13S
DES MOINES     CLOUDY    71  60  68 NE8       30.16R
KIRKSVILLE     CLOUDY    70  67  90 N7        30.13R
OTTUMWA        CLOUDY    66  62  87 N8        30.13S
ST LOUIS       CLOUDY    77  72  84 CALM      30.06F
$$


CITY           SKY/WX    TMP DP  RH WIND       PRES   REMARKS
TERRE HAUTE    MOSUNNY   73  70  90 CALM      30.03F
EVANSVILLE     MOSUNNY   80  71  74 N6        30.03S HX  84
INDIANAPOLIS   PTSUNNY   75  71  87 NW6       30.03F
LAFAYETTE      CLOUDY    77  70  79 N8        30.02F
MADISON        MOSUNNY   66  61  84 N8        30.13S
MILWAUKEE      PTSUNNY   70  59  68 N14       30.09S
$$






USA.gov is the U.S. government's official web portal to all federal, state and local government web resources and services.